FW3019 Weather Reports


Display with metric or nautical units.
time (UTC)temp
F
wind
direction
speed
MPH
gust
MPH
rain 1hr
in
rain 24hr
in
rain mn
in
humidity
%
barometer
mb
20260509235728 74 197 0.0 1.0 0.00 0.00 0.00 79 1011.3
20260509235510 74 186 0.0 1.0 0.00 0.00 0.00 79 1011.5
20260509234716 75 214 0.0 0.0 0.00 0.00 0.00 78 1011.6
20260509234211 75 214 0.0 0.0 0.00 0.00 0.00 78 1011.6
20260509233703 75 214 0.0 0.0 0.00 0.00 0.00 78 1011.6
20260509233158 75 213 0.0 1.0 0.00 0.00 0.00 77 1011.6
20260509232652 75 213 0.0 1.0 0.00 0.00 0.00 77 1011.6
20260509232152 76 178 0.0 0.0 0.00 0.00 0.00 76 1011.6
20260509231652 76 178 0.0 0.0 0.00 0.00 0.00 76 1011.4
20260509231439 76 177 0.0 0.0 0.00 0.00 0.00 76 1011.2
20260509230650 76 178 0.0 0.0 0.00 0.00 0.00 75 1011.3
20260509230148 76 178 0.0 0.0 0.00 0.00 0.00 75 1011.2
20260509225646 76 178 0.0 0.0 0.00 0.00 0.00 75 1011.1
20260509225144 76 178 0.0 1.0 0.00 0.00 0.00 75 1011.2
20260509224929 77 177 0.0 1.0 0.00 0.00 0.00 75 1011.2
20260509224140 77 115 0.0 1.0 0.00 0.00 0.00 75 1011.2
20260509223639 77 115 0.0 1.0 0.00 0.00 0.00 75 1011.1
20260509223143 77 196 0.0 0.0 0.00 0.00 0.00 75 1011.1
20260509222640 77 196 0.0 0.0 0.00 0.00 0.00 75 1010.9
20260509222139 77 198 0.0 0.0 0.00 0.00 0.00 74 1010.9
20260509221925 77 198 0.0 0.0 0.00 0.00 0.00 74 1011.0
20260509221136 77 210 0.0 1.0 0.00 0.00 0.00 74 1011.1
20260509220635 77 210 0.0 1.0 0.00 0.00 0.00 74 1011.2
20260509220422 78 246 0.0 1.0 0.00 0.00 0.00 74 1011.1
20260509215635 78 156 0.0 2.0 0.00 0.00 0.00 74 1011.1
20260509215419 78 215 0.0 5.0 0.00 0.00 0.00 74 1011.1
20260509214635 78 221 0.0 5.0 0.00 0.00 0.00 74 1011.2
20260509214136 78 219 0.0 2.0 0.00 0.00 0.00 74 1011.2
20260509213635 78 232 0.0 1.0 0.00 0.00 0.00 74 1011.1
20260509213136 78 244 0.0 1.0 0.00 0.00 0.00 74 1011.2
20260509212920 78 192 0.0 0.0 0.00 0.00 0.00 74 1011.4
20260509212420 78 197 0.0 1.0 0.00 0.00 0.00 74 1011.4
20260509211631 78 197 0.0 1.0 0.00 0.00 0.00 74 1011.4
20260509211131 78 235 0.0 1.0 0.00 0.00 0.00 74 1011.2
20260509210631 78 196 0.0 2.0 0.00 0.00 0.00 74 1011.0
20260509210131 78 198 0.0 2.0 0.00 0.00 0.00 74 1010.9
20260509205631 78 211 0.0 3.0 0.00 0.00 0.00 74 1010.7
20260509205132 78 173 0.0 3.0 0.00 0.00 0.00 74 1010.7
20260509204632 78 137 0.0 1.0 0.00 0.00 0.00 75 1011.0
20260509204128 78 128 0.0 0.0 0.00 0.00 0.00 75 1011.0
20260509203917 78 127 0.0 0.0 0.00 0.00 0.00 74 1011.2
20260509203127 79 128 0.0 0.0 0.00 0.00 0.00 73 1011.2
20260509202630 79 167 0.0 0.0 0.00 0.00 0.00 72 1011.2
20260509202128 79 164 0.0 0.0 0.00 0.00 0.00 71 1011.3
20260509201627 80 165 0.0 0.0 0.00 0.00 0.00 71 1011.4
20260509201126 80 165 0.0 0.0 0.00 0.00 0.00 70 1011.3
20260509200628 80 165 0.0 0.0 0.00 0.00 0.00 70 1011.3
20260509200128 80 165 0.0 0.0 0.00 0.00 0.00 69 1011.4
20260509195916 80 165 0.0 0.0 0.00 0.00 0.00 69 1011.4
20260509195115 80 165 0.0 0.0 0.00 0.00 0.00 68 1011.3
20260509194855 80 165 0.0 0.0 0.00 0.00 0.00 68 1011.3
20260509194356 80 165 0.0 0.0 0.00 0.00 0.00 68 1011.3
20260509193557 80 171 0.0 0.0 0.00 0.00 0.00 68 1011.3
20260509193052 80 212 0.0 0.0 0.00 0.00 0.00 67 1011.4
20260509192849 80 212 0.0 0.0 0.00 0.00 0.00 67 1011.4
20260509192049 80 219 0.0 1.0 0.00 0.00 0.00 67 1011.5
20260509191549 80 219 0.0 2.0 0.00 0.00 0.00 67 1011.6
20260509191125 81 248 0.0 2.0 0.00 0.00 0.00 67 1011.7
20260509191115 81 170 0.0 2.0 0.00 0.00 0.00 67 1011.7
20260509190045 81 315 0.0 2.0 0.00 0.00 0.00 67 1011.7
20260509185543 81 236 0.0 1.0 0.00 0.00 0.00 67 1011.6
20260509185041 81 236 0.0 4.0 0.00 0.00 0.00 67 1011.7
20260509184539 81 214 0.0 4.0 0.00 0.00 0.00 67 1011.7
20260509184040 81 207 0.0 3.0 0.00 0.00 0.00 68 1011.7
20260509183829 82 169 0.0 1.0 0.00 0.00 0.00 68 1011.7
20260509183325 82 307 0.0 2.0 0.00 0.00 0.00 68 1011.7
20260509182535 81 221 0.0 4.0 0.00 0.00 0.00 68 1011.7
20260509182033 81 179 0.0 4.0 0.00 0.00 0.00 69 1011.5
20260509181531 81 203 0.0 3.0 0.00 0.00 0.00 70 1011.6
20260509181030 81 207 1.0 5.0 0.00 0.00 0.00 71 1011.7
20260509180532 81 218 0.0 5.0 0.00 0.00 0.00 72 1011.5
20260509180029 81 190 0.0 3.0 0.00 0.00 0.00 73 1011.5
20260509175526 80 188 0.0 3.0 0.00 0.00 0.00 74 1011.7
20260509175025 80 210 0.0 4.0 0.00 0.00 0.00 74 1011.6
20260509174526 79 205 0.0 4.0 0.00 0.00 0.00 75 1011.7
20260509174019 79 214 0.0 3.0 0.00 0.00 0.00 75 1012.0
20260509173513 78 200 0.0 2.0 0.00 0.00 0.00 75 1012.1
20260509173255 78 226 0.0 2.0 0.00 0.00 0.00 75 1012.0
20260509172501 78 226 0.0 2.0 0.00 0.00 0.00 76 1012.1
20260509171955 78 212 0.0 2.0 0.00 0.00 0.00 76 1012.1
20260509171449 78 219 0.0 3.0 0.00 0.00 0.00 76 1012.5
20260509170943 78 188 0.0 5.0 0.00 0.00 0.00 76 1012.6
20260509170437 78 200 0.0 5.0 0.00 0.00 0.00 76 1012.5
20260509165930 78 179 0.0 2.0 0.00 0.00 0.00 77 1012.6
20260509165425 77 204 0.0 3.0 0.00 0.00 0.00 77 1012.7
20260509165211 77 196 0.0 3.0 0.00 0.00 0.00 77 1012.7
20260509164414 77 188 0.0 4.0 0.00 0.00 0.00 77 1012.8
20260509163906 77 172 0.0 4.0 0.00 0.00 0.00 78 1012.8
20260509163401 77 186 0.0 5.0 0.00 0.00 0.00 78 1012.8
20260509162856 76 203 0.0 5.0 0.00 0.00 0.00 78 1012.9
20260509162350 76 173 0.0 1.0 0.00 0.00 0.00 79 1013.0
20260509161843 76 193 0.0 0.0 0.00 0.00 0.00 79 1013.2
20260509161337 76 193 0.0 3.0 0.00 0.00 0.00 80 1013.1
20260509160830 76 193 0.0 3.0 0.00 0.00 0.00 82 1012.9
20260509160325 76 194 0.0 2.0 0.00 0.00 0.00 83 1012.9
20260509155819 76 192 1.0 5.0 0.00 0.00 0.00 84 1012.8
20260509155312 76 179 1.0 5.0 0.00 0.00 0.00 85 1012.8
20260509154807 75 196 0.0 4.0 0.00 0.00 0.00 86 1012.8
20260509154302 75 203 1.0 5.0 0.00 0.00 0.00 87 1012.8
20260509153755 75 178 2.0 5.0 0.00 0.00 0.00 88 1012.8
20260509153249 74 195 2.0 6.0 0.00 0.00 0.00 88 1012.8
20260509152743 74 156 1.0 6.0 0.00 0.00 0.00 88 1012.9
20260509152237 74 160 1.0 4.0 0.00 0.00 0.00 88 1012.9
20260509151731 73 178 1.0 4.0 0.00 0.00 0.00 88 1013.0
20260509151225 73 170 0.0 2.0 0.00 0.00 0.00 89 1013.3
20260509150719 73 168 0.0 0.0 0.00 0.00 0.00 89 1013.4
20260509150213 73 168 0.0 1.0 0.00 0.00 0.00 89 1013.5
20260509145707 73 150 0.0 1.0 0.00 0.00 0.00 89 1013.6
20260509145201 73 166 0.0 0.0 0.00 0.00 0.00 89 1013.7
20260509144654 73 166 0.0 0.0 0.00 0.00 0.00 89 1013.6
20260509144221 72 166 0.0 1.0 0.00 0.00 0.00 89 1013.5
20260509144211 72 166 0.0 1.0 0.00 0.00 0.00 89 1013.7
20260509143137 72 153 0.0 2.0 0.00 0.00 0.00 89 1013.5
20260509142631 72 152 0.0 2.0 0.00 0.00 0.00 89 1013.5
20260509142124 72 158 0.0 2.0 0.00 0.00 0.00 89 1013.4
20260509141619 72 133 0.0 2.0 0.00 0.00 0.00 89 1013.2
20260509141113 71 151 1.0 2.0 0.00 0.00 0.00 89 1013.2
20260509140607 71 139 1.0 2.0 0.00 0.00 0.00 89 1013.1
20260509135555 71 145 1.0 3.0 0.00 0.00 0.00 89 1013.1
20260509135049 71 155 1.0 2.0 0.00 0.00 0.00 89 1013.1
20260509134543 70 156 0.0 2.0 0.00 0.00 0.00 88 1013.1
20260509134328 70 150 1.0 2.0 0.00 0.00 0.00 88 1013.2
20260509133531 70 150 0.0 2.0 0.00 0.00 0.00 88 1013.1
20260509133025 70 150 0.0 1.0 0.00 0.00 0.00 88 1013.1
20260509132519 70 152 1.0 2.0 0.00 0.00 0.00 87 1013.1
20260509132013 70 144 0.0 2.0 0.00 0.00 0.00 88 1013.1
20260509131507 71 143 0.0 1.0 0.00 0.00 0.00 88 1013.3
20260509131001 71 103 0.0 0.0 0.00 0.00 0.00 88 1013.3
20260509130455 71 102 0.0 0.0 0.00 0.00 0.00 88 1013.4
20260509130239 71 102 0.0 0.0 0.00 0.00 0.00 89 1013.4
20260509125443 71 102 0.0 0.0 0.00 0.00 0.00 90 1013.5
20260509125225 71 102 0.0 0.0 0.00 0.00 0.00 90 1013.5
20260509124431 71 102 0.0 0.0 0.00 0.00 0.00 91 1013.6
20260509124215 71 102 0.0 0.0 0.00 0.00 0.00 92 1013.6
20260509123419 70 102 0.0 0.0 0.00 0.00 0.00 92 1013.7
20260509122913 70 102 0.0 0.0 0.00 0.00 0.00 93 1013.6
20260509122653 70 102 0.0 0.0 0.00 0.00 0.00 94 1013.5
20260509121903 69 102 0.0 0.0 0.00 0.00 0.00 94 1013.6
20260509121644 69 102 0.0 0.0 0.00 0.00 0.00 95 1013.6
20260509120849 69 102 0.0 0.0 0.00 0.00 0.00 95 1013.5
20260509120343 68 102 0.0 0.0 0.00 0.00 0.00 95 1013.5
20260509115836 68 102 0.0 1.0 0.00 0.00 0.00 95 1013.5
20260509115331 67 102 0.0 1.0 0.00 0.00 0.00 95 1013.3
20260509114825 66 103 0.0 1.0 0.00 0.00 0.00 95 1013.3
20260509114319 65 103 0.0 0.0 0.00 0.00 0.00 95 1013.3
20260509113815 64 103 0.0 0.0 0.00 0.00 0.00 95 1013.1
20260509113601 64 103 0.0 0.0 0.00 0.00 0.00 95 1013.1
20260509113105 63 103 0.0 0.0 0.00 0.00 0.00 95 1013.1
20260509112317 63 103 0.0 0.0 0.00 0.00 0.00 95 1013.3
20260509111817 63 103 0.0 0.0 0.00 0.00 0.00 94 1013.0
20260509111317 63 103 0.0 0.0 0.00 0.00 0.00 94 1012.9
20260509110815 62 103 0.0 0.0 0.00 0.00 0.00 94 1012.8
20260509110317 62 103 0.0 0.0 0.00 0.00 0.00 94 1012.8
20260509105818 62 103 0.0 0.0 0.00 0.00 0.00 94 1012.8
20260509105319 62 103 0.0 0.0 0.00 0.00 0.00 94 1012.7
20260509104906 63 103 0.0 0.0 0.00 0.00 0.00 94 1012.5
20260509104851 62 103 0.0 0.0 0.00 0.00 0.00 94 1012.6
20260509104108 63 103 0.0 0.0 0.00 0.00 0.00 94 1012.4
20260509103315 63 103 0.0 0.0 0.00 0.00 0.00 94 1012.3
20260509102815 63 103 0.0 0.0 0.00 0.00 0.00 94 1012.3
20260509102312 63 103 0.0 0.0 0.00 0.00 0.00 93 1012.2
20260509101812 63 103 0.0 0.0 0.00 0.00 0.00 93 1012.2
20260509101312 63 103 0.0 0.0 0.00 0.00 0.00 93 1012.3
20260509100812 63 103 0.0 0.0 0.00 0.00 0.00 93 1012.4
20260509100311 63 103 0.0 0.0 0.00 0.00 0.00 93 1012.3
20260509095814 63 103 0.0 0.0 0.00 0.00 0.00 93 1012.2
20260509095309 63 103 0.0 0.0 0.00 0.00 0.00 93 1012.2
20260509094808 63 103 0.0 0.0 0.00 0.00 0.00 93 1012.3
20260509094309 63 103 0.0 0.0 0.00 0.00 0.00 93 1012.5
20260509093807 64 103 0.0 0.0 0.00 0.00 0.00 93 1012.5
20260509093307 64 103 0.0 0.0 0.00 0.00 0.00 93 1012.4
20260509093054 64 103 0.0 0.0 0.00 0.00 0.00 93 1012.4
20260509092307 64 103 0.0 0.0 0.00 0.00 0.00 93 1012.5
20260509091808 64 103 0.0 0.0 0.00 0.00 0.00 93 1012.4
20260509091309 64 104 0.0 0.0 0.00 0.00 0.00 93 1012.4
20260509090808 64 104 0.0 0.0 0.00 0.00 0.00 93 1012.7
20260509090309 64 104 0.0 0.0 0.00 0.00 0.00 93 1012.7
20260509085809 64 104 0.0 0.0 0.00 0.00 0.00 93 1012.9
20260509085309 64 104 0.0 1.0 0.00 0.00 0.00 93 1012.8
20260509085106 64 104 0.0 1.0 0.00 0.00 0.00 92 1012.7
20260509084307 64 145 0.0 1.0 0.00 0.00 0.00 92 1012.6
20260509083807 64 143 0.0 0.0 0.00 0.00 0.00 92 1012.7
20260509083309 64 143 0.0 1.0 0.00 0.00 0.00 92 1012.7
20260509082806 64 143 0.0 1.0 0.00 0.00 0.00 92 1012.5
20260509082300 64 147 0.0 0.0 0.00 0.00 0.00 92 1012.6
20260509082103 63 147 0.0 0.0 0.00 0.00 0.00 92 1012.9
20260509081248 63 147 0.0 0.0 0.00 0.00 0.00 92 1013.0
20260509080742 63 147 0.0 0.0 0.00 0.00 0.00 91 1013.1
20260509080237 63 147 0.0 0.0 0.00 0.00 0.00 91 1013.0
20260509075730 63 147 0.0 0.0 0.00 0.00 0.00 91 1012.9
20260509075224 63 147 0.0 0.0 0.00 0.00 0.00 91 1012.8
20260509074718 63 147 0.0 0.0 0.00 0.00 0.00 91 1012.9
20260509074212 63 148 0.0 0.0 0.00 0.00 0.00 91 1013.1
20260509073706 63 148 0.0 0.0 0.00 0.00 0.00 90 1013.1
20260509073159 63 146 0.0 0.0 0.00 0.00 0.00 90 1013.2
20260509072654 63 146 0.0 0.0 0.00 0.00 0.00 90 1013.2
20260509072148 63 146 0.0 0.0 0.00 0.00 0.00 90 1013.1
20260509071642 63 146 0.0 0.0 0.00 0.00 0.00 90 1012.9
20260509071135 63 146 0.0 0.0 0.00 0.00 0.00 90 1012.8
20260509070630 64 146 0.0 0.0 0.00 0.00 0.00 89 1012.8
20260509070123 64 146 0.0 0.0 0.00 0.00 0.00 89 1012.9
20260509065904 64 146 0.0 1.0 0.00 0.00 0.00 89 1013.0
20260509065110 64 146 0.0 1.0 0.00 0.00 0.00 89 1012.8
20260509064604 64 147 0.0 0.0 0.00 0.00 0.00 89 1013.2
20260509064058 64 147 0.0 0.0 0.00 0.00 0.00 88 1013.2
20260509063552 65 147 0.0 2.0 0.00 0.00 0.00 88 1013.3
20260509063046 65 147 1.0 4.0 0.00 0.00 0.00 88 1013.3
20260509062539 65 126 0.0 4.0 0.00 0.00 0.00 88 1012.9
20260509062034 65 353 0.0 2.0 0.00 0.00 0.00 88 1013.5
20260509061528 65 63 0.0 1.0 0.00 0.00 0.00 88 1014.3
20260509061022 65 64 0.0 1.0 0.00 0.00 0.00 88 1014.3
20260509060515 66 64 0.0 1.0 0.00 0.00 0.00 88 1013.6
20260509060302 66 64 0.0 0.0 0.00 0.00 0.00 88 1013.5
20260509055504 66 28 0.0 0.0 0.00 0.00 0.00 89 1013.8
20260509055154 66 150 3.0 6.0 0.00 0.00 0.00 89 1013.7
20260509055149 66 162 2.0 5.0 0.00 0.00 0.00 89 1013.7
20260509055121 66 28 0.0 1.0 0.00 0.00 0.00 89 1013.8
20260509055011 66 27 0.0 1.0 0.00 0.00 0.00 89 1013.8
20260509054901 67 116 0.0 3.0 0.00 0.00 0.00 89 1014.1
20260509054431 66 169 3.0 5.0 0.00 0.00 0.00 89 1013.8
20260509052703 66 150 3.0 6.0 0.00 0.00 0.00 89 1013.7
20260509051922 65 161 2.0 6.0 0.00 0.00 0.00 89 1013.7
20260509051416 65 139 1.0 3.0 0.00 0.00 0.00 89 1014.1
20260509050910 65 150 1.0 3.0 0.00 0.00 0.00 89 1014.4
20260509050404 64 153 0.0 2.0 0.00 0.00 0.00 88 1014.6
20260509045859 64 136 0.0 1.0 0.00 0.00 0.00 88 1014.7
20260509045352 64 134 0.0 0.0 0.00 0.00 0.00 88 1015.1
20260509044846 64 134 0.0 0.0 0.00 0.00 0.00 88 1015.2
20260509044341 64 134 0.0 0.0 0.00 0.00 0.00 88 1015.3
20260509043835 64 134 0.0 0.0 0.00 0.00 0.00 88 1015.2
20260509043328 64 134 0.0 0.0 0.00 0.00 0.00 88 1015.3
20260509042822 64 134 0.0 0.0 0.00 0.00 0.00 88 1015.1
20260509042316 64 134 0.0 0.0 0.00 0.00 0.00 88 1015.0
20260509041810 64 134 0.0 1.0 0.00 0.00 0.00 88 1015.1
20260509041305 64 134 0.0 1.0 0.00 0.00 0.00 88 1014.7
20260509041059 64 113 0.0 0.0 0.00 0.00 0.00 88 1014.9
20260509040253 64 113 0.0 0.0 0.00 0.00 0.00 87 1015.3
20260509035746 64 113 0.0 0.0 0.00 0.00 0.00 87 1015.4
20260509035240 64 113 0.0 0.0 0.00 0.00 0.00 87 1015.6
20260509034734 64 114 0.0 0.0 0.00 0.00 0.00 87 1015.7
20260509034228 64 114 0.0 0.0 0.00 0.00 0.00 86 1015.6
20260509033722 64 114 0.0 0.0 0.00 0.00 0.00 86 1015.6
20260509033215 64 113 0.0 0.0 0.00 0.00 0.00 86 1015.6
20260509032710 64 113 0.0 0.0 0.00 0.00 0.00 86 1015.7
20260509032204 64 113 0.0 0.0 0.00 0.00 0.00 85 1015.7
20260509031704 64 113 0.0 0.0 0.00 0.00 0.00 85 1015.7
20260509031447 64 113 0.0 0.0 0.00 0.00 0.00 85 1015.6
20260509030701 64 113 0.0 0.0 0.00 0.00 0.00 85 1015.7
20260509030202 64 113 0.0 0.0 0.00 0.00 0.00 85 1015.8
20260509025658 64 113 0.0 0.0 0.00 0.00 0.00 84 1015.9
20260509025444 64 113 0.0 0.0 0.00 0.00 0.00 84 1016.0
20260509024655 64 113 0.0 0.0 0.00 0.00 0.00 84 1016.1
20260509024153 64 113 0.0 0.0 0.00 0.00 0.00 84 1016.1
20260509023724 64 113 0.0 0.0 0.00 0.00 0.00 83 1015.8
20260509023715 64 113 0.0 0.0 0.00 0.00 0.00 84 1015.9
20260509022646 64 113 0.0 0.0 0.00 0.00 0.00 83 1015.6
20260509022146 64 113 0.0 0.0 0.00 0.00 0.00 83 1015.6
20260509021648 64 113 0.0 0.0 0.00 0.00 0.00 82 1015.6
20260509021147 64 113 0.0 0.0 0.00 0.00 0.00 82 1015.4
20260509020648 65 113 0.0 0.0 0.00 0.00 0.00 82 1015.4
20260509020145 65 113 0.0 0.0 0.00 0.00 0.00 82 1015.4
20260509015644 65 113 0.0 0.0 0.00 0.00 0.00 81 1015.4
20260509015144 65 113 0.0 0.0 0.00 0.00 0.00 81 1015.4
20260509014931 65 114 0.0 0.0 0.00 0.00 0.00 81 1015.5
20260509014145 65 114 0.0 0.0 0.00 0.00 0.00 80 1015.6
20260509013644 65 114 0.0 0.0 0.00 0.00 0.00 80 1015.6
20260509013428 65 114 0.0 0.0 0.00 0.00 0.00 80 1015.4
20260509012642 65 114 0.0 0.0 0.00 0.00 0.00 79 1015.3
20260509012145 65 114 0.0 0.0 0.00 0.00 0.00 79 1015.3
20260509011641 65 114 0.0 0.0 0.00 0.00 0.00 79 1015.2
20260509011139 66 114 0.0 0.0 0.00 0.00 0.00 79 1015.3
20260509010640 66 114 0.0 1.0 0.00 0.00 0.00 79 1015.3
20260509010140 66 114 0.0 1.0 0.00 0.00 0.00 79 1015.3
20260509005638 66 119 0.0 0.0 0.00 0.00 0.00 79 1015.2
20260509005138 66 120 0.0 1.0 0.00 0.00 0.00 79 1015.1
20260509004639 66 120 0.0 1.0 0.00 0.00 0.00 79 1015.3
20260509004140 66 118 0.0 1.0 0.00 0.00 0.00 79 1015.1
20260509003640 66 119 0.0 1.0 0.00 0.00 0.00 79 1015.1
20260509003136 66 112 0.0 1.0 0.00 0.00 0.00 79 1015.0
20260509002635 66 133 0.0 1.0 0.00 0.00 0.00 79 1015.0
20260509002136 66 131 0.0 2.0 0.00 0.00 0.00 79 1014.8
20260509001634 67 129 1.0 3.0 0.00 0.00 0.00 79 1014.6
20260509001135 67 135 2.0 5.0 0.00 0.00 0.00 79 1014.8
20260509000636 67 126 2.0 5.0 0.00 0.00 0.00 79 1014.7
20260509000136 67 135 2.0 5.0 0.00 0.00 0.00 79 1014.7